This is the latest recevied weather packets stored in our database for station/object KE4LOJ. If no packets are shown the sender has not sent any weather packets the latest 10 day(s).
| Time | Temp. | Humidity | Pressure | Rain* | Wind** | Luminosity | Snow |
|---|---|---|---|---|---|---|---|
| 1777554486 | 23.89° C | 83% | 1013.2 hPa | 0 mm | - | 80 W/m² | - |
| 1777554182 | 23.89° C | 83% | 1013 hPa | 0 mm | - | 89 W/m² | - |
| 1777553879 | 23.89° C | 83% | 1013 hPa | 0 mm | - | 105 W/m² | - |
| 1777553575 | 23.89° C | 85% | 1013.1 hPa | 0 mm | - | 166 W/m² | - |
| 1777553271 | 23.33° C | 86% | 1013.2 hPa | 0 mm | - | 132 W/m² | - |
| 1777552967 | 23.33° C | 87% | 1013.1 hPa | 0 mm | - | 95 W/m² | - |
| 1777552662 | 22.78° C | 88% | 1013.3 hPa | 0 mm | - | 101 W/m² | - |
| 1777552359 | 22.78° C | 88% | 1013.1 hPa | 0 mm | - | 80 W/m² | - |
| 1777552056 | 22.78° C | 88% | 1013.1 hPa | 0 mm | - | 71 W/m² | - |
| 1777551753 | 22.78° C | 89% | 1013.2 hPa | 0 mm | - | 57 W/m² | - |
| 1777551450 | 22.78° C | 89% | 1013 hPa | 0 mm | - | 46 W/m² | - |
| 1777551147 | 22.78° C | 90% | 1013 hPa | 0 mm | - | 46 W/m² | - |
| 1777550845 | 22.78° C | 90% | 1013 hPa | 0 mm | - | 60 W/m² | - |
| 1777550541 | 22.78° C | 90% | 1012.8 hPa | 0 mm | - | 62 W/m² | - |
| 1777550236 | 22.22° C | 90% | 1012.8 hPa | 0 mm | - | 49 W/m² | - |
| 1777549933 | 22.22° C | 91% | 1012.7 hPa | 0 mm | - | 39 W/m² | - |
| 1777549629 | 22.22° C | 91% | 1012.7 hPa | 0 mm | - | 38 W/m² | - |
| 1777549324 | 22.22° C | 91% | 1012.8 hPa | 0 mm | - | 40 W/m² | - |
| 1777549023 | 22.22° C | 92% | 1012.8 hPa | 0 mm | - | 34 W/m² | - |
| 1777548718 | 22.22° C | 92% | 1012.5 hPa | 0 mm | - | 30 W/m² | - |
| 1777548416 | 22.22° C | 92% | 1012.2 hPa | 0 mm | - | 23 W/m² | - |
| 1777548113 | 22.22° C | 92% | 1012.1 hPa | 0 mm | - | 19 W/m² | - |
| 1777547808 | 22.22° C | 92% | 1012.3 hPa | 0 mm | - | 13 W/m² | - |
| 1777547504 | 22.22° C | 92% | 1012.3 hPa | 0 mm | - | 9 W/m² | - |
| 1777547203 | 22.22° C | 92% | 1012.3 hPa | 0 mm | - | 7 W/m² | - |
* Rain latest hour (hover to see other rain measurements)
** Current wind speed in m/s (hover to see current wind gust speed)